Location: Mauna Kea VIS
(19.7591°N, 155.4561°W)
Time: 11:32:01
(UTC-10:00)

Daily predictions for brighter satellites

Satellite Brightness Start Highest point End
(mag) Time Altitude Azimuth Time Altitude Azimuth Time Altitude Azimuth
Cosmos 1980 3.7 19:08:21 10° SSW 19:14:01 83° ESE 19:19:41 10° NNE
Cosmos 1812 2.7 19:12:12 10° S 19:16:00 63° E 19:19:49 10° NNE
ERBS 2.8 19:14:20 10° NNW 19:17:39 46° ENE 19:20:59 10° SE
FREGAT/IRIS 2.7 19:15:01 10° SSE 19:18:10 85° ENE 19:21:19 10° N
Cosmos 2251 Rocket 4.2 19:13:39 10° SSE 19:18:15 32° E 19:22:54 10° NE
RESURS DK-1 3.6 19:15:23 10° NNE 19:18:48 25° ENE 19:22:11 10° SE
Cosmos 1484 Rocket 3.7 19:16:13 10° S 19:19:49 49° W 19:23:25 10° NNW
Cosmos 1459 Rocket 4.1 19:14:01 10° N 19:20:21 86° W 19:26:34 10° S
Cosmos 1844 Rocket 3.7 19:16:14 10° N 19:21:03 28° ENE 19:25:49 10° SE
SL-24 R/B 4.0 19:17:22 10° SSE 19:21:34 82° ENE 19:25:55 10° N
Spot 2 Rocket 3.6 19:21:44 10° SSE 19:26:47 86° WSW 19:31:50 10° NNW
Cosmos 1356 3.6 19:23:23 10° N 19:26:52 55° E 19:30:20 10° SSE
ALOS 3.8 19:24:08 10° ESE 19:27:19 19° ENE 19:30:31 10° NNE
Cosmos 1315 Rocket 3.3 19:25:30 10° N 19:29:22 42° E 19:33:11 10° SSE
Cosmos 2123 Rocket 4.1 19:25:36 10° S 19:31:47 85° W 19:37:57 10° N
Atlas Centaur 2 2.8 19:25:22 10° WSW 19:32:16 76° SSE 19:40:32 10° ENE
Fermi 3.7 19:29:14 10° WSW 19:33:20 88° SSE 19:37:25 10° ENE
Intelsat 5-2 Rocket 2.5 19:30:51 10° WNW 19:33:37 47° N 19:35:48 11° E
Cosmos 2016 Rocket 4.0 19:28:48 10° N 19:35:06 87° E 19:41:17 10° S
Palapa B4 Rocket 2.6 19:32:21 10° W 19:36:12 78° S 19:39:24 14° E
Cosmos 2237 Rocket 2.7 19:31:17 10° SSW 19:36:49 64° WNW 19:42:23 10° N
CZ-4B DEB 2.8 19:34:04 10° SSE 19:37:22 70° ENE 19:40:41 10° N
Meteor 2-15 4.4 19:32:14 10° S 19:38:17 83° E 19:44:19 10° N
Okean 1 3.8 19:35:13 10° SSW 19:39:14 64° W 19:43:15 10° N
Milstar 3 Cent rocket 3.7 19:33:57 10° WNW 19:42:57 43° N 19:48:06 10° ENE
HJ-1C 4.5 19:41:00 10° S 19:44:09 44° W 19:47:19 10° NNW
Lacrosse 5 rocket 3.7 19:41:20 10° WSW 19:44:24 24° NW 19:47:36 10° N
Cosmos 1400 Rocket 3.5 19:40:38 10° NNW 19:44:25 53° W 19:48:13 10° S
SL-24 R/B - RUBIN 2 4.3 19:41:51 10° SSW 19:46:41 71° WNW 19:52:14 10° NNE
Cosmos 1420 Rocket 4.4 19:42:06 10° N 19:47:08 45° ENE 19:51:09 15° SE
Aureole 2 Rocket 4.1 19:49:12 18° SE 19:50:37 22° ESE 19:53:44 10° NE
ASC 2 Rocket 4.0 19:43:22 10° WNW 19:51:33 74° SSW 19:55:32 20° ESE
Cosmos 2278 Rocket 3.2 19:51:06 10° N 19:55:54 28° ENE 19:58:25 20° ESE
Cosmos 1500 3.7 19:58:57 10° NNE 20:02:36 39° E 20:03:52 29° SE
SL-16 R/B 2.1 19:57:34 10° SSW 20:03:13 86° ESE 20:08:52 10° NNE
Cosmos 2233 Rocket 4.0 20:00:22 10° N 20:06:28 57° E 20:11:05 18° SSE
deb Chang Zheng 4 3.5 20:04:22 10° NNE 20:08:41 61° ESE 20:12:51 11° S
CZ-4 DEB 2.8 20:08:34 42° SE 20:09:21 57° ENE 20:12:31 10° N
Cosmos 1743 3.9 20:07:42 10° NNE 20:10:37 25° ENE 20:10:37 25° ENE
Cosmos 494 Rocket 3.8 20:08:02 10° S 20:13:07 78° ESE 20:18:13 10° NNE
Meteor 1-23 Rocket 4.3 20:07:57 10° S 20:13:24 56° E 20:18:54 10° NNE
Tiangong 1 0.9 20:12:21 10° NW 20:15:29 90° SW 20:15:50 68° SE
BREEZE-M R/B 3.8 20:12:16 10° NNW 20:15:54 48° NE 20:18:30 29° ESE
H-2A R/B 2.9 20:22:43 31° ENE 20:22:43 31° ENE 20:26:18 10° NNE
USA 186 2.0 20:25:44 51° SW 20:26:11 59° W 20:29:06 10° NNW
Cosmos 1606 Rocket 3.6 20:22:17 10° N 20:26:36 53° E 20:27:05 50° ESE
Resurs 01 Rocket 4.4 20:26:38 10° SW 20:28:47 13° W 20:30:56 10° WNW
GPS 2-15 Rocket1 3.1 20:24:14 10° W 20:29:06 88° S 20:30:34 46° E
H-2A R/B 3.0 20:30:24 38° S 20:31:45 66° W 20:35:39 10° NNW
Cosmos 1603 3.8 20:29:53 34° SSE 20:31:57 51° ESE 20:37:21 10° NNE
SPOT 5 4.5 20:36:01 18° NE 20:36:01 18° NE 20:37:55 10° NNE
Skynet4D Del rocket 3.4 20:32:08 10° WNW 20:37:34 87° SSW 20:38:47 55° ESE
Meteor 2-4 Rocket 3.8 20:32:04 10° S 20:37:47 78° W 20:43:39 10° N
OTV 4 3.2 20:49:08 10° NNW 20:50:07 16° N 20:50:07 16° N
SeaSat 1 3.8 20:52:33 25° NE 20:52:33 25° NE 20:55:46 10° N
Hubble Space Telescope 1.2 20:47:57 10° WNW 20:51:25 60° W 20:51:25 60° W
Cosmos 2297 3.9 20:52:11 10° N 20:57:30 53° ENE 20:57:30 53° ENE
Delta 168 3.8 20:55:13 10° W 20:58:57 47° N 20:59:26 45° NNE
Cosmos 2228 4.4 20:56:13 10° N 20:58:40 31° NNE 20:58:40 31° NNE
ALOS 4.2 21:02:13 18° SW 21:04:29 25° W 21:08:19 10° NW
CZ-4B R/B 3.9 21:00:13 10° NNE 21:04:12 54° NE 21:04:12 54° NE
Cosmos 1939 Rocket 4.1 21:07:21 39° N 21:07:21 39° N 21:10:01 10° N
ATLAS 3B CENTAUR R/B 3.6 21:06:19 10° W 21:11:37 45° SSW 21:13:02 43° S
Delta 202 4.2 21:02:20 10° W 21:12:21 81° S 21:13:26 67° ESE
Cosmos 1891 Rocket 4.4 21:07:22 10° N 21:12:50 66° NE 21:12:50 66° NE
Centaur D AC-28 2.6 21:11:54 10° WNW 21:14:39 42° NNW 21:14:39 42° NNW
Envisat 3.5 21:17:25 54° N 21:17:25 54° N 21:21:20 10° N
ERS-1 Rocket 3.9 21:16:52 40° WSW 21:17:19 41° W 21:22:01 10° NNW
Tsikada Rocket 4.1 21:21:26 65° SW 21:22:17 74° W 21:28:40 10° N
Atlas Centaur 2 3.6 21:14:56 10° W 21:22:29 52° NNW 21:28:43 19° NE
COSMOS 2455 3.0 21:22:02 61° WSW 21:22:49 69° WNW 21:28:47 10° NNE
ATLAS 3B R/B 3.3 21:39:25 53° NE 21:39:25 53° NE 21:45:02 10° NNE
Cosmos 2278 Rocket 3.9 21:35:17 10° NW 21:39:43 24° WSW 21:40:19 23° WSW
Cosmos 2285 Rocket 4.5 21:38:53 10° NNW 21:44:19 56° WNW 21:44:19 56° WNW
USA 234 4.2 21:49:52 36° NNE 21:49:52 36° NNE 21:54:52 10° NNW
ATLAS 5 CENTAUR R/B 4.5 22:31:20 10° E 22:31:20 10° E 22:07:56 - W
Milstar 3 Cent rocket 4.4 22:16:07 10° WNW 22:17:32 18° WNW 22:17:32 18° WNW
Atlas Centaur 2 4.3 23:05:43 10° WNW 23:11:24 35° NNW 23:11:24 35° NNW
